User: anonymous   Login
Location: Unspecified
(0.0000°N, 0.0000°E)
Time: 09:00:17
(UTC+00:00)
Language:

Tiros 10 - Orbit

View from above orbital plane
View from above orbital plane
View from above satellite
View from above satellite

Ground track
Ground track

The orbit data is extracted from the following two-line orbital elements,

1 01430U 65051A   17055.88633868  .00000025  00000-0  20738-4 0  9994
2 01430  98.1240 215.6448 0055546 234.4146 125.1860 14.40178836706933
Epoch (UTC): 24 February 2017 21:16:19
Eccentricity: 0.0055546
inclination: 98.1240°
perigee height: 718 km
apogee height: 797 km
right ascension of ascending node: 215.6448°
argument of perigee: 234.4146°
revolutions per day: 14.40178836
mean anomaly at epoch: 125.1860°
orbit number at epoch: 70693

The dashed part of the orbit path shows where the satellite is in the earth's shadow,  

DLR